TimeCDT,TemperatureF,Dew PointF,Humidity,Sea Level PressureIn,VisibilityMPH,Wind Direction,Wind SpeedMPH,Gust SpeedMPH,PrecipitationIn,Events,Conditions,WindDirDegrees,DateUTC
12:54 AM,19.0,10.0,68,30.15,10.0,North,29.9,38.0,N/A,,Overcast,350,2013-04-10 05:54:00
1:54 AM,19.0,10.9,71,30.16,10.0,NNW,29.9,38.0,N/A,,Overcast,340,2013-04-10 06:54:00
2:54 AM,19.0,10.9,71,30.15,10.0,North,26.5,33.4,N/A,,Overcast,350,2013-04-10 07:54:00
3:54 AM,19.9,10.9,68,30.12,10.0,North,27.6,35.7,N/A,,Overcast,350,2013-04-10 08:54:00
4:54 AM,19.9,10.9,68,30.19,10.0,NNW,21.9,28.8,N/A,,Overcast,340,2013-04-10 09:54:00
5:54 AM,19.9,10.9,68,30.14,10.0,NNW,26.5,34.5,N/A,,Overcast,330,2013-04-10 10:54:00
6:54 AM,19.9,10.9,68,30.17,10.0,North,18.4,28.8,N/A,,Overcast,350,2013-04-10 11:54:00
7:54 AM,19.0,10.0,68,30.15,10.0,NNW,24.2,29.9,N/A,,Overcast,330,2013-04-10 12:54:00
8:29 AM,19.4,10.4,68,30.07,10.0,NNW,25.3,34.5,N/A,,Scattered Clouds,330,2013-04-10 13:29:00
8:54 AM,21.0,10.0,63,30.17,10.0,NNW,26.5,32.2,N/A,,Clear,330,2013-04-10 13:54:00
9:54 AM,25.0,10.9,55,30.18,10.0,NNW,25.3,32.2,N/A,,Partly Cloudy,330,2013-04-10 14:54:00
10:54 AM,28.0,10.9,49,30.16,10.0,NNW,26.5,38.0,N/A,,Clear,330,2013-04-10 15:54:00
11:54 AM,30.2,10.4,44,30.04,10.0,NNW,24.2,38.0,N/A,,Clear,340,2013-04-10 16:54:00
12:54 PM,34.0,12.0,40,30.11,10.0,NNW,23.0,35.7,N/A,,Clear,330,2013-04-10 17:54:00
1:54 PM,36.0,12.0,37,30.08,10.0,NNW,25.3,32.2,N/A,,Clear,340,2013-04-10 18:54:00
2:54 PM,37.9,12.0,35,30.06,10.0,NNW,25.3,32.2,N/A,,Scattered Clouds,340,2013-04-10 19:54:00
3:54 PM,37.9,12.9,36,30.04,10.0,NNW,19.6,29.9,N/A,,Partly Cloudy,330,2013-04-10 20:54:00
4:54 PM,37.0,12.9,37,30.03,10.0,NNW,25.3,29.9,N/A,,Mostly Cloudy,340,2013-04-10 21:54:00
5:54 PM,33.1,12.9,43,30.02,10.0,NNW,26.5,32.2,N/A,,Mostly Cloudy,330,2013-04-10 22:54:00
6:54 PM,34.0,12.9,42,30.02,10.0,NNW,24.2,31.1,N/A,,Mostly Cloudy,340,2013-04-10 23:54:00
7:54 PM,30.9,12.9,47,30.03,10.0,NNW,18.4,-,N/A,,Mostly Cloudy,340,2013-04-11 00:54:00
8:54 PM,28.9,12.9,51,30.04,10.0,NW,15.0,-,N/A,,Mostly Cloudy,320,2013-04-11 01:54:00
9:54 PM,28.9,14.0,54,30.06,10.0,NNW,19.6,27.6,N/A,,Overcast,330,2013-04-11 02:54:00
10:54 PM,28.9,14.0,54,30.06,10.0,NNW,21.9,-,N/A,,Overcast,330,2013-04-11 03:54:00
11:54 PM,26.1,15.1,63,30.06,10.0,NW,13.8,-,N/A,,Partly Cloudy,320,2013-04-11 04:54:00